Wind_Speed
34 33 35 33 30 29 24 24 25 25 25 26 28 32 31 30 30 29 29 29 30 30 31 32 33 33 32 31 30 30 29 28 24 22 21 23 23 22 19 18 17 19 20 20
31 34 29 25 26 27 28 24 21 20 20 20 24 28 26 25 25 24 24 26 29 32 34 35 35 36 36 35 35 33 31 25 23 22 22 22 22 19 17 18 18 19 20 21
32 26 30 28 26 24 24 23 19 18 16 18 20 25 23 22 19 20 22 23 26 31 34 36 36 37 37 36 34 31 28 25 24 23 22 21 17 17 16 16 17 17 18 19
24 28 19 29 28 24 21 20 20 19 13 7 8 8 15 11 11 14 17 20 21 28 30 34 36 35 34 32 29 27 26 24 22 22 18 16 15 14 15 15 15 15 16 16
22 24 28 19 24 23 20 14 15 14 13 13 14 8 15 11 13 17 19 19 22 23 23 31 32 31 33 30 27 25 23 23 22 17 14 13 12 13 13 14 15 15 15 17
20 17 21 26 14 18 15 13 11 9 8 6 11 11 8 13 12 11 13 18 21 22 24 21 25 32 31 29 25 23 23 21 17 14 12 11 12 13 14 14 13 14 16 19
21 17 17 19 23 18 20 15 3 4 5 3 8 8 17 9 14 17 17 17 17 18 21 20 19 25 30 28 24 23 21 16 13 11 11 13 14 14 13 14 16 19 20 23
22 12 22 19 26 21 26 23 5 5 4 2 9 8 5 14 16 16 16 18 16 16 17 18 19 21 26 26 23 20 16 12 12 13 14 14 14 14 16 17 20 23 26 29
21 10 24 16 22 19 21 17 16 1 0 2 6 9 8 10 9 13 16 14 13 11 10 11 14 16 19 20 18 15 14 13 13 14 15 14 15 18 20 23 26 29 31 31
14 11 20 21 22 21 14 20 10 8 4 5 4 6 11 8 14 18 14 12 11 11 11 12 13 15 16 15 14 15 14 14 15 14 15 17 20 22 24 26 31 29 28 28
16 9 18 22 24 26 25 20 15 10 7 2 2 5 8 11 12 9 11 11 13 13 14 14 14 14 14 14 14 15 15 15 15 16 18 20 23 26 28 29 29 28 27 26
24 13 11 23 22 26 29 21 28 11 8 11 7 10 9 9 3 7 13 16 17 18 17 16 16 14 13 13 13 13 13 14 15 18 22 25 28 29 29 29 28 28 27 26
35 20 11 8 17 19 27 28 27 27 19 16 8 6 8 7 9 10 13 17 19 19 19 18 16 14 13 12 11 12 15 17 19 23 26 28 27 27 28 28 29 29 28 27
28 20 23 19 14 17 29 30 32 31 19 17 27 17 12 12 10 12 16 17 20 23 23 21 19 17 16 15 17 20 20 20 25 26 26 28 29 28 28 29 30 30 28 28
24 21 24 19 17 13 15 25 35 40 39 24 22 31 29 28 27 19 19 19 22 24 23 23 20 19 18 21 25 24 22 24 24 26 25 24 26 28 29 30 30 30 29 29
28 16 22 22 20 18 23 26 26 31 37 43 40 44 32 27 24 23 24 25 24 24 24 26 25 26 29 28 26 23 24 25 25 24 25 27 29 31 31 32 33 33 32 31
30 27 17 15 25 18 23 38 35 36 37 39 42 38 33 32 32 30 27 30 23 24 26 26 30 35 30 25 25 25 25 27 27 29 31 33 33 33 34 36 36 37 38 37
25 27 17 7 12 10 19 23 20 33 38 41 43 40 35 28 23 23 30 29 30 29 29 33 31 27 24 25 27 27 27 29 31 34 37 37 38 42 39 38 39 40 40 39
26 28 18 10 15 15 19 24 25 23 24 21 24 21 26 24 24 25 26 29 30 31 29 31 31 30 27 28 28 28 30 32 34 37 40 41 44 45 42 40 41 40 41 40
23 26 26 16 8 8 5 1 11 17 31 16 22 18 17 19 32 19 23 27 27 27 29 31 31 29 29 29 31 32 34 37 38 40 41 43 45 44 40 39 38 38 39 39
32 33 36 27 15 15 20 11 9 13 5 3 2 11 19 23 21 15 15 18 21 24 27 28 29 29 31 35 35 36 38 40 41 42 44 46 45 40 38 38 37 37 38 38
33 27 28 31 21 21 17 12 20 8 7 5 7 9 14 17 17 18 20 20 22 23 23 24 27 30 33 33 35 39 41 37 40 45 46 43 40 38 37 39 39 39 39 38
29 37 31 32 33 25 24 14 8 8 7 3 6 9 14 16 14 13 17 21 24 26 29 31 33 34 34 35 38 40 38 41 45 45 41 39 37 36 36 37 37 37 36 35
38 36 36 33 39 36 25 15 13 12 12 16 14 13 18 24 24 29 30 28 29 30 31 32 34 34 36 39 39 39 41 44 44 41 41 39 36 34 35 35 36 36 35 34
37 38 43 41 40 23 30 29 26 23 22 20 26 26 26 27 30 32 34 36 36 36 36 35 35 36 38 40 41 42 45 44 41 40 42 40 38 35 38 37 35 34 34 34
37 39 40 45 41 40 33 23 20 28 26 25 27 30 30 33 35 37 38 38 37 34 35 38 41 44 43 44 43 46 48 46 44 42 40 40 38 38 38 37 35 34 33 32
Wind_Direction
221 222 228 234 235 236 238 239 246 251 251 253 256 258 257 261 260 258 256 250 249 249 246 248 252 256 262 267 272 277 283 287 280 278 277 277 277 279 276 275 276 277 279 279
218 222 225 226 227 230 236 238 241 250 252 259 262 262 263 255 259 261 258 256 254 250 249 249 252 257 262 267 271 273 274 273 276 275 275 274 276 275 276 279 281 283 284 284
215 224 221 223 226 223 228 230 232 245 257 263 275 280 266 259 255 255 254 254 251 248 249 249 250 254 258 261 265 267 266 266 269 273 274 272 269 274 277 281 285 286 287 289
219 218 218 223 227 228 236 239 241 248 255 254 264 284 260 251 235 243 254 256 252 248 247 248 248 249 251 253 254 259 263 266 272 272 268 265 270 274 280 281 283 287 289 292
207 215 217 217 223 218 225 230 234 241 251 266 262 254 271 259 248 265 259 255 249 248 246 246 246 246 247 249 252 255 257 268 270 265 261 264 269 274 280 286 290 294 297 300
207 205 206 219 210 207 213 215 219 233 241 248 235 218 264 249 252 250 254 258 253 252 247 246 246 240 239 242 246 250 261 263 256 255 256 260 264 274 284 288 291 295 299 302
193 200 204 201 201 193 200 191 156 219 210 250 210 213 233 217 244 251 261 263 265 256 246 242 241 238 235 236 242 249 252 246 243 244 251 256 265 275 280 285 294 300 301 302
184 192 197 205 199 200 190 187 199 219 202 150 216 232 230 219 231 248 257 256 264 263 252 247 240 228 227 233 239 241 236 236 243 249 256 263 272 282 290 295 300 305 306 306
182 183 195 193 199 199 191 202 218 148 160 270 224 255 236 217 221 249 263 261 258 249 238 224 214 210 214 219 219 220 226 235 242 256 265 272 284 294 298 300 302 304 302 300
181 168 187 189 190 201 199 213 193 198 206 231 207 253 234 223 237 241 250 251 237 225 218 206 198 197 201 206 215 223 233 243 253 266 282 291 296 300 299 298 300 301 302 300
184 168 180 185 201 205 204 203 208 205 212 250 289 247 224 227 232 235 234 235 228 221 213 209 209 209 213 221 226 233 242 255 276 290 294 298 299 300 299 299 300 301 301 299
192 203 180 202 216 218 222 220 215 206 223 223 246 254 204 174 274 252 240 231 224 221 218 219 221 223 228 232 237 244 259 273 286 296 302 305 304 299 299 300 304 304 301 297
202 201 171 203 225 221 220 220 226 226 239 222 204 228 174 208 223 233 240 234 229 226 225 224 227 227 211 214 231 259 278 290 298 302 304 300 297 300 302 305 304 303 301 297
209 213 211 224 231 226 216 220 225 224 226 227 231 241 238 215 221 250 250 242 239 230 227 231 233 235 239 253 275 286 287 295 300 297 294 295 298 302 304 304 304 302 300 295
213 217 223 232 233 224 229 238 231 224 228 225 245 248 253 253 256 260 248 242 244 243 242 235 239 247 252 284 297 294 292 288 283 287 290 297 304 306 306 306 305 302 299 297
208 210 218 223 226 227 233 240 238 242 236 247 255 258 257 259 254 242 232 235 246 250 257 261 263 265 275 279 276 269 269 272 280 289 297 301 302 301 301 302 303 301 298 297
203 209 196 220 229 239 259 241 240 244 242 246 241 266 258 267 260 252 239 243 253 244 252 264 266 267 268 264 269 273 275 277 282 289 295 297 301 306 304 300 300 301 298 296
216 207 197 202 206 231 247 248 243 248 255 255 260 263 267 268 272 261 248 247 248 249 252 261 263 260 259 265 266 272 276 280 283 288 292 295 303 309 306 299 295 293 291 290
216 205 202 198 207 255 250 249 245 247 268 260 259 255 257 256 253 232 234 239 245 253 257 257 253 257 262 265 267 271 279 285 287 289 293 299 303 305 302 294 289 288 286 285
212 215 205 201 212 235 251 271 231 236 264 259 252 249 233 225 233 248 245 243 246 248 252 259 261 262 263 266 268 272 279 284 291 294 298 300 300 299 294 290 287 286 285 283
192 202 206 211 220 254 247 221 170 193 232 198 317 223 222 231 246 246 247 247 248 248 251 257 261 263 262 264 269 276 282 291 295 297 297 298 298 295 291 289 290 289 288 285
186 184 203 213 220 257 240 219 211 241 229 238 275 254 228 228 228 239 249 254 253 255 260 264 265 265 263 268 277 284 289 294 294 295 295 296 294 291 290 289 289 288 287 285
196 200 199 209 223 231 233 239 223 199 194 199 309 228 222 219 222 250 264 260 259 261 264 267 268 269 273 280 285 289 293 292 291 289 292 293 293 292 291 290 289 287 284 282
219 220 221 225 234 239 236 220 204 190 232 264 282 251 246 242 254 277 280 274 270 269 272 273 273 277 280 286 289 287 286 287 286 285 286 288 288 290 291 289 288 285 283 279
227 228 229 233 239 235 246 261 253 249 256 263 277 269 259 256 262 269 274 278 281 279 280 285 285 285 289 289 281 279 283 285 284 284 284 285 285 282 293 290 290 282 280 279
236 240 235 244 251 249 255 250 240 267 271 266 264 263 261 260 261 265 270 273 278 282 283 283 287 289 285 279 277 280 285 287 286 283 283 283 284 280 290 293 289 280 272 274
Height
3121 3126 3126 3132 3136 3138 3140 3143 3144 3146 3147 3147 3146 3146 3148 3148 3148 3149 3151 3152 3154 3155 3157 3159 3160 3160 3161 3161 3162 3162 3161 3161 3161 3161 3160 3159 3158 3158 3157 3156 3155 3154 3153 3151
3117 3118 3124 3128 3131 3134 3135 3138 3141 3142 3142 3142 3140 3139 3142 3142 3143 3144 3145 3146 3147 3148 3149 3151 3153 3153 3154 3155 3155 3156 3155 3155 3155 3155 3155 3154 3154 3153 3153 3152 3151 3149 3148 3146
3111 3114 3119 3123 3126 3130 3132 3135 3138 3140 3139 3138 3137 3135 3136 3136 3138 3138 3138 3139 3139 3140 3142 3143 3145 3146 3147 3148 3149 3149 3150 3150 3150 3150 3150 3150 3150 3149 3149 3148 3146 3144 3143 3141
3109 3110 3113 3117 3122 3127 3129 3132 3135 3137 3139 3137 3136 3133 3131 3131 3132 3134 3133 3133 3133 3133 3135 3135 3137 3139 3141 3142 3143 3144 3145 3145 3145 3145 3145 3146 3146 3146 3145 3143 3142 3140 3139 3137
3102 3106 3109 3113 3118 3123 3126 3129 3132 3133 3135 3134 3133 3136 3124 3126 3128 3128 3127 3127 3127 3127 3127 3128 3129 3132 3134 3136 3138 3140 3140 3141 3141 3141 3142 3142 3142 3142 3140 3140 3138 3137 3135 3134
3099 3102 3106 3110 3116 3119 3123 3127 3131 3132 3134 3131 3127 3129 3123 3121 3122 3122 3123 3121 3121 3121 3122 3123 3123 3125 3128 3130 3132 3134 3135 3136 3137 3138 3138 3138 3138 3138 3137 3136 3135 3133 3132 3131
3096 3100 3102 3106 3112 3116 3118 3125 3131 3134 3131 3122 3121 3124 3117 3117 3117 3118 3118 3117 3117 3116 3117 3118 3119 3120 3122 3126 3128 3129 3130 3132 3134 3135 3135 3135 3134 3134 3133 3132 3131 3130 3128 3126
3090 3097 3097 3102 3106 3107 3112 3119 3121 3119 3120 3119 3120 3116 3111 3112 3113 3113 3113 3112 3112 3112 3112 3114 3115 3115 3118 3122 3125 3127 3128 3130 3131 3131 3132 3132 3132 3131 3130 3129 3127 3125 3123 3121
3084 3091 3094 3099 3103 3108 3112 3115 3118 3118 3120 3120 3114 3109 3109 3108 3109 3110 3109 3108 3108 3109 3110 3111 3111 3112 3115 3119 3122 3124 3125 3126 3128 3129 3129 3129 3128 3127 3126 3124 3122 3120 3117 3113
3081 3089 3092 3097 3101 3104 3107 3111 3115 3116 3117 3113 3108 3106 3104 3104 3105 3106 3106 3106 3106 3107 3109 3110 3111 3112 3115 3117 3120 3121 3123 3124 3125 3125 3125 3125 3123 3122 3120 3118 3115 3111 3108 3105
3079 3082 3092 3095 3094 3097 3102 3103 3107 3109 3109 3105 3104 3101 3100 3102 3103 3104 3104 3105 3105 3106 3108 3109 3111 3112 3114 3116 3117 3119 3120 3121 3121 3121 3120 3119 3117 3115 3112 3109 3106 3103 3100 3098
3076 3081 3086 3090 3091 3094 3096 3097 3100 3103 3105 3105 3104 3100 3099 3100 3102 3103 3103 3102 3103 3104 3106 3107 3108 3110 3112 3113 3115 3117 3117 3117 3116 3115 3114 3112 3109 3106 3104 3101 3098 3095 3093 3091
3070 3077 3084 3089 3091 3089 3090 3093 3096 3099 3100 3096 3100 3095 3095 3097 3098 3099 3099 3101 3101 3102 3103 3104 3106 3107 3109 3110 3112 3112 3112 3111 3110 3108 3107 3104 3101 3099 3096 3093 3091 3089 3086 3084
3067 3070 3072 3075 3078 3081 3083 3085 3088 3092 3092 3092 3086 3090 3091 3093 3095 3096 3097 3097 3098 3098 3099 3101 3103 3104 3106 3107 3107 3106 3106 3104 3103 3101 3099 3097 3095 3092 3089 3087 3085 3082 3079 3077
3063 3065 3070 3072 3074 3076 3077 3078 3080 3080 3082 3082 3083 3080 3085 3087 3089 3091 3093 3094 3093 3095 3096 3097 3099 3100 3101 3101 3100 3099 3097 3096 3095 3094 3092 3089 3088 3086 3083 3080 3077 3075 3072 3069
3057 3060 3065 3069 3070 3071 3071 3072 3072 3074 3077 3074 3076 3066 3076 3080 3082 3083 3086 3088 3089 3091 3092 3093 3093 3093 3093 3093 3092 3091 3089 3089 3089 3088 3086 3084 3082 3079 3076 3074 3071 3068 3065 3061
3052 3055 3061 3065 3066 3069 3065 3059 3063 3065 3065 3065 3063 3061 3070 3071 3073 3076 3079 3081 3082 3085 3087 3087 3087 3086 3086 3086 3085 3085 3084 3084 3083 3082 3080 3078 3075 3073 3070 3067 3063 3060 3057 3054
3046 3052 3058 3060 3064 3062 3049 3051 3053 3054 3056 3058 3056 3059 3061 3065 3068 3069 3071 3072 3076 3079 3080 3081 3080 3080 3080 3080 3079 3079 3078 3077 3076 3075 3072 3070 3067 3064 3061 3057 3054 3050 3047 3044
3042 3047 3052 3056 3057 3049 3044 3044 3047 3048 3048 3051 3050 3052 3054 3058 3061 3059 3062 3065 3067 3071 3072 3073 3073 3073 3073 3073 3073 3073 3073 3072 3069 3067 3064 3062 3059 3055 3051 3048 3044 3040 3037 3034
3037 3044 3050 3051 3053 3047 3040 3039 3041 3045 3040 3045 3044 3045 3048 3050 3049 3050 3057 3059 3060 3063 3064 3065 3065 3066 3066 3067 3066 3066 3065 3063 3061 3058 3055 3052 3049 3045 3041 3037 3033 3030 3027 3025
3031 3036 3039 3043 3044 3036 3034 3038 3040 3044 3046 3040 3039 3040 3043 3043 3047 3051 3052 3053 3054 3055 3056 3057 3058 3059 3059 3058 3058 3057 3055 3055 3051 3048 3045 3041 3037 3034 3031 3027 3024 3021 3019 3016
3018 3027 3031 3035 3040 3031 3027 3031 3035 3037 3036 3037 3037 3038 3040 3041 3043 3044 3045 3046 3047 3048 3049 3051 3051 3051 3050 3049 3049 3048 3046 3044 3039 3036 3033 3030 3027 3023 3020 3017 3014 3011 3010 3008
3013 3012 3016 3021 3017 3017 3022 3027 3030 3031 3033 3034 3036 3036 3036 3037 3038 3039 3040 3041 3042 3043 3043 3043 3043 3041 3041 3040 3039 3037 3035 3031 3028 3025 3023 3019 3016 3013 3010 3007 3004 3001 2999 2998
3006 3009 3011 3013 3012 3013 3017 3023 3025 3028 3030 3031 3031 3032 3033 3033 3032 3032 3033 3034 3035 3036 3035 3035 3034 3033 3032 3030 3028 3026 3024 3020 3016 3013 3011 3007 3005 3002 2999 2997 2995 2992 2990 2987
2998 3001 3002 3004 3006 3007 3012 3017 3021 3021 3023 3024 3024 3025 3025 3025 3026 3026 3025 3025 3025 3025 3024 3024 3023 3023 3022 3020 3016 3013 3010 3007 3003 3001 2999 2996 2993 2990 2988 2986 2984 2982 2981 2978
2987 2990 2994 2994 3002 3006 3009 3010 3011 3012 3013 3014 3013 3014 3015 3015 3016 3016 3016 3016 3015 3015 3015 3013 3011 3009 3008 3005 3001 2999 2997 2993 2991 2988 2985 2983 2981 2979 2977 2975 2974 2972 2971 2969